Powrót do katalogu

ONEWEB-0451

AktywnyŁącznośćPO
NORAD 51643·PAYLOAD·🇬🇧 United Kingdom

Wystrzelony Feb 10, 2022 z Guiana Space Centre

Loading…

Następne Przeloty (najbliższe 24 godziny)

TLE

ŚwieżeSource: CelesTrak SupGP

Epoka: Sep 14, 2026, 14:37 UTC

1 51643C 22012X   26257.60954120  .00002050  00000+0  52865-2 0  2576
2 51643  87.9210 348.0935 0002015 107.6332   5.4851 13.17644548    17

Śledź ONEWEB-0451 w czasie rzeczywistym z AllMySat

Download on the App Store